Amateur Radio Satellites - All Passes

Search period start: 18 May 2013 20:22
Search period end: 19 May 2013 20:22
Location: Highland Meadows Observing Site, 48.4428°N, 114.5461°W

Satellite Date Start Highest point End Downlink Frequencies (MHz)
Time Altitude Azimuth
HO-68 18 May 20:23:18 20:28:49 25° 52° (NE) 20:34:21 435.675 MHz FM
STRAND 1 18 May 20:41:33 20:46:38 63° 289° (WNW) 20:51:42 ?
JAS-1B 18 May 20:54:06 21:03:28 68° 257° (WSW) 21:11:30 435.800 - 435.900 CW/SSB
Hamsat 18 May 20:55:19 20:58:28 20° 268° (W) 21:01:38 145.90 MHz
Oscar 11 18 May 21:06:47 21:09:05 14° 58° (ENE) 21:11:24 145.825 FM, Beacon 2401.500 USB
SO-67 18 May 21:09:12 21:12:23 30° 264° (W) 21:15:36 435.3500 MHz FM
UOSAT-12 18 May 21:23:12 21:27:43 53° 45° (NE) 21:32:14 437.025 FM, 437.400 FM
JAS-2 18 May 21:27:16 21:34:24 42° 62° (ENE) 21:41:37 435.800 - 435.900 CW/SSB, 435.910 FM
OPAL 18 May 21:38:33 21:42:39 24° 58° (ENE) 21:46:44 ?
HO-68 18 May 22:08:37 22:15:46 85° 253° (WSW) 22:22:58 435.675 MHz FM
AO-40 18 May 22:11:25 04:30:33 38° 177° (S) 10:19:05 Beacon 2401.320
RS-15 18 May 22:21:38 22:32:05 36° 351° (N) 22:42:08 29.354 - 29.394 USB, Beacon 29.352 USB
STRAND 1 18 May 22:23:11 22:24:53 12° 309° (NW) 22:26:34 ?
Oscar 11 18 May 22:40:26 22:44:45 78° 257° (WSW) 22:49:07 145.825 FM, Beacon 2401.500 USB
JAS-1B 18 May 22:49:53 22:55:09 16° 276° (W) 23:00:04 435.800 - 435.900 CW/SSB
KITSAT 1 18 May 22:56:10 22:58:24 11° 96° (E) 23:00:38 435.175 FM
UOSAT-12 18 May 23:03:52 23:07:39 25° 245° (WSW) 23:11:25 437.025 FM, 437.400 FM
JAS-2 18 May 23:11:43 23:19:11 54° 262° (W) 23:26:54 435.800 - 435.900 CW/SSB, 435.910 FM
OPAL 18 May 23:16:02 23:21:11 60° 256° (WSW) 23:26:19 ?
HO-68 18 May 23:59:52 00:04:30 18° 273° (W) 00:09:11 435.675 MHz FM
RS-15 19 May 00:37:21 00:48:04 43° 25° (NNE) 00:58:22 29.354 - 29.394 USB, Beacon 29.352 USB
KITSAT 1 19 May 00:44:12 00:51:59 56° 116° (ESE) 00:59:51 435.175 FM
JAS-2 19 May 01:03:44 01:05:58 11° 283° (WNW) 01:08:13 435.800 - 435.900 CW/SSB, 435.910 FM
Uribyol 2 19 May 02:17:54 02:20:24 13° 87° (E) 02:22:53 436.500 FM
Oscar 19 19 May 02:28:46 02:32:25 19° 90° (E) 02:36:02 437.125 CW, 437.150 USB
KITSAT 1 19 May 02:39:51 02:47:37 48° 319° (NW) 02:55:27 435.175 FM
MaSat-1 19 May 02:47:38 02:53:25 28° 108° (ESE) 02:58:27 437.345 MHz
RS-15 19 May 02:50:33 03:01:49 87° 234° (SW) 03:12:43 29.354 - 29.394 USB, Beacon 29.352 USB
AO-27 19 May 03:05:52 03:10:36 34° 96° (E) 03:15:18 436.795 MHz FM
Oscar 16 19 May 03:06:29 03:11:29 45° 98° (E) 03:16:25 437.025 USB, Beacon 2401.1428
AO-Echo 19 May 03:06:45 03:08:02 11° 86° (E) 03:09:19 ?
ITAMSAT 1 19 May 03:13:30 03:18:22 38° 97° (E) 03:23:13 435.822 SSB
Uribyol 2 19 May 03:55:23 04:00:40 87° 105° (ESE) 04:05:54 436.500 FM
Oscar 19 19 May 04:07:07 04:12:17 67° 288° (WNW) 04:17:23 437.125 CW, 437.150 USB
TMSAT-1 19 May 04:28:07 04:31:41 18° 89° (E) 04:35:14 436.925 FM
MaSat-1 19 May 04:28:27 04:35:26 69° 302° (WNW) 04:41:05 437.345 MHz
ISS 19 May 04:31:40 04:32:50 11° 134° (SE) 04:34:01 145.800 FM
Uosat F 19 May 04:32:14 04:36:43 32° 96° (E) 04:41:11 435.120 FM
KITSAT 1 19 May 04:38:53 04:45:13 24° 347° (NNW) 04:51:35 435.175 FM
AO-Echo 19 May 04:42:51 04:47:35 85° 104° (ESE) 04:52:22 ?
AO-27 19 May 04:45:22 04:50:11 39° 294° (WNW) 04:54:59 436.795 MHz FM
Oscar 16 19 May 04:46:13 04:50:40 29° 297° (WNW) 04:55:05 437.025 USB, Beacon 2401.1428
Gurwin Techsat 1B 19 May 04:46:35 04:51:29 36° 96° (E) 04:56:22 435.225 FM
ITAMSAT 1 19 May 04:53:09 04:57:50 35° 296° (WNW) 05:02:31 435.822 SSB
RS-15 19 May 05:04:10 05:12:33 26° 258° (WSW) 05:20:50 29.354 - 29.394 USB, Beacon 29.352 USB
AO-7 19 May 05:17:12 05:23:13 21° 89° (E) 05:29:13 29.400 - 29.500 MHz
Uribyol 2 19 May 05:36:13 05:39:29 17° 304° (NW) 05:42:45 436.500 FM
Oscar 19 19 May 05:48:40 05:50:41 12° 308° (NW) 05:52:42 437.125 CW, 437.150 USB
ISS 19 May 06:05:42 06:08:59 58° 152° (SSE) 06:12:17 145.800 FM
TMSAT-1 19 May 06:06:53 06:12:12 73° 288° (WNW) 06:17:29 436.925 FM
Uosat F 19 May 06:10:58 06:15:36 39° 294° (WNW) 06:20:14 435.120 FM
MaSat-1 19 May 06:14:02 06:18:25 19° 320° (NW) 06:22:13 437.345 MHz
STRAND 1 19 May 06:22:42 06:27:27 42° 67° (ENE) 06:32:15 ?
AO-Echo 19 May 06:23:11 06:25:47 15° 303° (WNW) 06:28:24 ?
Gurwin Techsat 1B 19 May 06:26:37 06:31:29 37° 295° (WNW) 06:36:19 435.225 FM
KITSAT 1 19 May 06:37:10 06:43:42 26° 17° (NNE) 06:50:14 435.175 FM
AO-7 19 May 07:08:46 07:17:11 86° 109° (ESE) 07:25:35 29.400 - 29.500 MHz
Saudisat 1A 19 May 07:33:29 07:37:43 39° 119° (ESE) 07:42:01 436.775 MHz
ISS 19 May 07:42:30 07:45:47 51° 351° (N) 07:49:05 145.800 FM
TMSAT-1 19 May 07:48:42 07:51:16 14° 307° (NW) 07:53:49 436.925 FM
STRAND 1 19 May 08:02:22 08:06:48 30° 265° (W) 08:11:16 ?
Sapphire 19 May 08:07:54 08:10:52 15° 104° (ESE) 08:13:51 437.095 MHz 1200 baud AX-25 AFSK
SO-67 19 May 08:32:47 08:35:11 17° 91° (E) 08:37:34 435.3500 MHz FM
KITSAT 1 19 May 08:33:05 08:41:04 55° 44° (NE) 08:49:01 435.175 FM
Hamsat 19 May 08:36:38 08:40:55 56° 100° (E) 08:45:12 145.90 MHz
JAS-1B 19 May 08:37:23 08:42:38 27° 90° (E) 08:47:26 435.800 - 435.900 CW/SSB
AO-7 19 May 09:02:22 09:09:08 29° 311° (NW) 09:15:54 29.400 - 29.500 MHz
Saudisat 1A 19 May 09:13:11 09:17:28 38° 319° (NW) 09:21:48 436.775 MHz
PCSat 19 May 09:15:31 09:20:45 53° 117° (ESE) 09:26:02 145.825 MHz
ISS 19 May 09:19:31 09:22:50 55° 11° (N) 09:26:09 145.800 FM
HO-68 19 May 09:34:14 09:37:56 15° 85° (E) 09:41:36 435.675 MHz FM
Oscar 10/S400 19 May 09:39:56 12:16:41 30° 263° (W) 18:44:15 145.825 - 145.975 CW/USB, Beacon 145.810 USB
Sapphire 19 May 09:48:05 09:53:30 87° 123° (ESE) 09:58:58 437.095 MHz 1200 baud AX-25 AFSK
SO-50 19 May 09:55:22 09:58:55 21° 113° (ESE) 10:02:26 436.795 FM
SO-67 19 May 10:05:28 10:08:50 39° 289° (WNW) 10:12:11 435.3500 MHz FM
Hamsat 19 May 10:13:37 10:16:37 19° 298° (WNW) 10:19:38 145.90 MHz
JAS-2 19 May 10:18:51 10:24:30 24° 86° (E) 10:29:38 435.800 - 435.900 CW/SSB, 435.910 FM
Oscar 11 19 May 10:25:56 10:28:31 15° 89° (E) 10:31:05 145.825 FM, Beacon 2401.500 USB
JAS-1B 19 May 10:27:33 10:33:51 53° 294° (WNW) 10:39:27 435.800 - 435.900 CW/SSB
KITSAT 1 19 May 10:28:47 10:36:25 47° 246° (WSW) 10:44:02 435.175 FM
Saudisat 1A 19 May 10:56:04 10:58:27 14° 342° (NNW) 11:00:50 436.775 MHz
ISS 19 May 10:56:18 10:59:34 49° 211° (SSW) 11:02:51 145.800 FM
PCSat 19 May 10:59:32 11:04:27 34° 318° (NW) 11:09:23 145.825 MHz
HO-68 19 May 11:19:43 11:26:54 72° 105° (ESE) 11:34:03 435.675 MHz FM
OPAL 19 May 11:22:47 11:26:59 26° 96° (E) 11:31:06 ?
MaSat-1 19 May 11:29:12 11:31:59 18° 38° (NE) 11:34:22 437.345 MHz
Sapphire 19 May 11:33:17 11:37:38 24° 325° (NW) 11:42:01 437.095 MHz 1200 baud AX-25 AFSK
SO-50 19 May 11:34:23 11:39:09 66° 312° (NW) 11:43:51 436.795 FM
Oscar 11 19 May 12:00:51 12:05:11 64° 287° (WNW) 12:09:30 145.825 FM, Beacon 2401.500 USB
JAS-2 19 May 12:03:03 12:10:22 74° 289° (WNW) 12:16:49 435.800 - 435.900 CW/SSB, 435.910 FM
JAS-1B 19 May 12:20:43 12:22:50 12° 319° (NW) 12:24:53 435.800 - 435.900 CW/SSB
Saudisat 1A 19 May 12:38:50 12:40:09 11° 7° (N) 12:41:28 436.775 MHz
PCSat 19 May 12:47:07 12:49:36 13° 343° (NNW) 12:52:07 145.825 MHz
Oscar 16 19 May 12:50:32 12:53:44 17° 56° (NE) 12:56:57 437.025 USB, Beacon 2401.1428
AO-27 19 May 12:51:52 12:54:16 13° 53° (NE) 12:56:40 436.795 MHz FM
ITAMSAT 1 19 May 12:58:58 13:01:46 15° 54° (NE) 13:04:35 435.822 SSB
OPAL 19 May 13:01:16 13:06:07 48° 294° (WNW) 13:10:53 ?
HO-68 19 May 13:08:07 13:14:04 30° 306° (NW) 13:20:00 435.675 MHz FM
MaSat-1 19 May 13:10:57 13:14:33 46° 247° (WSW) 13:17:25 437.345 MHz
SO-50 19 May 13:17:18 13:20:38 19° 333° (NNW) 13:23:56 436.795 FM
UOSAT-12 19 May 13:18:13 13:22:24 39° 120° (ESE) 13:26:39 437.025 FM, 437.400 FM
Sapphire 19 May 13:21:34 13:23:10 11° 350° (N) 13:24:47 437.095 MHz 1200 baud AX-25 AFSK
Uribyol 2 19 May 13:38:47 13:43:15 30° 63° (ENE) 13:47:45 436.500 FM
Oscar 19 19 May 13:49:01 13:53:50 40° 66° (ENE) 13:58:40 437.125 CW, 437.150 USB
JAS-2 19 May 13:49:18 13:54:07 19° 312° (NW) 13:58:38 435.800 - 435.900 CW/SSB, 435.910 FM
Uosat F 19 May 14:14:41 14:16:16 11° 52° (NE) 14:17:50 435.120 FM
Saudisat 1A 19 May 14:17:57 14:21:33 22° 31° (NNE) 14:25:07 436.775 MHz
AO-Echo 19 May 14:22:21 14:26:10 24° 62° (ENE) 14:29:56 ?
Oscar 16 19 May 14:27:13 14:32:25 88° 255° (WSW) 14:37:41 437.025 USB, Beacon 2401.1428
AO-27 19 May 14:27:46 14:32:55 73° 72° (ENE) 14:38:07 436.795 MHz FM
AO-7 19 May 14:33:11 14:36:56 14° 33° (NNE) 14:40:41 29.400 - 29.500 MHz
PCSat 19 May 14:33:59 14:35:37 11° 10° (N) 14:37:16 145.825 MHz
Gurwin Techsat 1B 19 May 14:34:45 14:37:35 15° 54° (NE) 14:40:25 435.225 FM
ITAMSAT 1 19 May 14:35:20 14:40:30 82° 73° (ENE) 14:45:43 435.822 SSB
UOSAT-12 19 May 14:58:25 15:02:38 37° 320° (NW) 15:06:53 437.025 FM, 437.400 FM
SO-50 19 May 15:01:55 15:03:07 11° 358° (N) 15:04:19 436.795 FM
Sapphire 19 May 15:06:41 15:09:11 13° 17° (NNE) 15:11:41 437.095 MHz 1200 baud AX-25 AFSK
Uribyol 2 19 May 15:17:40 15:22:36 44° 262° (W) 15:27:35 436.500 FM
Oscar 19 19 May 15:28:37 15:33:16 32° 265° (W) 15:37:57 437.125 CW, 437.150 USB
Uosat F 19 May 15:49:12 15:54:08 64° 71° (ENE) 15:59:06 435.120 FM
TMSAT-1 19 May 15:52:17 15:57:10 39° 66° (ENE) 16:02:04 436.925 FM
Saudisat 1A 19 May 15:57:16 16:01:52 87° 232° (SW) 16:06:22 436.775 MHz
AO-Echo 19 May 15:59:58 16:04:43 50° 260° (W) 16:09:22 ?
AO-27 19 May 16:09:38 16:13:01 17° 271° (W) 16:16:26 436.795 MHz FM
Oscar 16 19 May 16:10:04 16:12:34 13° 274° (W) 16:15:04 437.025 USB, Beacon 2401.1428
Gurwin Techsat 1B 19 May 16:11:26 16:16:44 79° 73° (ENE) 16:22:04 435.225 FM
PCSat 19 May 16:16:45 16:21:09 24° 35° (NE) 16:25:31 145.825 MHz
ITAMSAT 1 19 May 16:17:41 16:20:41 15° 272° (W) 16:23:41 435.822 SSB
AO-7 19 May 16:19:58 16:27:35 43° 57° (ENE) 16:35:16 29.400 - 29.500 MHz
UOSAT-12 19 May 16:41:50 16:44:06 13° 343° (NNW) 16:46:22 437.025 FM, 437.400 FM
SO-50 19 May 16:42:45 16:45:41 16° 23° (NNE) 16:48:36 436.795 FM
Sapphire 19 May 16:49:24 16:54:21 34° 42° (NE) 16:59:16 437.095 MHz 1200 baud AX-25 AFSK
RS-15 19 May 17:17:55 17:28:48 43° 110° (ESE) 17:39:15 29.354 - 29.394 USB, Beacon 29.352 USB
Uosat F 19 May 17:29:55 17:33:25 19° 270° (W) 17:36:55 435.120 FM
TMSAT-1 19 May 17:32:24 17:37:10 34° 265° (W) 17:41:58 436.925 FM
Saudisat 1A 19 May 17:38:47 17:40:51 13° 251° (WSW) 17:42:54 436.775 MHz
JAS-1B 19 May 17:40:14 17:43:18 13° 42° (NE) 17:46:14 435.800 - 435.900 CW/SSB
Gurwin Techsat 1B 19 May 17:54:04 17:57:22 17° 272° (W) 18:00:41 435.225 FM
PCSat 19 May 17:59:48 18:05:17 86° 237° (WSW) 18:10:43 145.825 MHz
AO-7 19 May 18:12:08 18:20:13 55° 258° (WSW) 18:28:24 29.400 - 29.500 MHz
SO-50 19 May 18:22:48 18:27:20 54° 46° (NE) 18:31:45 436.795 FM
UOSAT-12 19 May 18:24:57 18:26:17 11° 8° (N) 18:27:37 437.025 FM, 437.400 FM
Sapphire 19 May 18:32:45 18:38:02 53° 243° (WSW) 18:43:17 437.095 MHz 1200 baud AX-25 AFSK
SO-67 19 May 19:13:27 19:15:05 13° 62° (ENE) 19:16:44 435.3500 MHz FM
JAS-1B 19 May 19:23:44 19:32:11 45° 63° (ENE) 19:39:28 435.800 - 435.900 CW/SSB
RS-15 19 May 19:28:41 19:40:39 72° 314° (NW) 19:52:06 29.354 - 29.394 USB, Beacon 29.352 USB
Hamsat 19 May 19:34:20 19:38:30 65° 73° (ENE) 19:42:43 145.90 MHz
PCSat 19 May 19:44:55 19:47:54 15° 256° (WSW) 19:50:53 145.825 MHz
SO-50 19 May 20:04:01 20:07:39 24° 245° (WSW) 20:11:13 436.795 FM
UOSAT-12 19 May 20:04:27 20:08:08 23° 32° (NNE) 20:11:48 437.025 FM, 437.400 FM
HO-68 19 May 20:07:18 20:12:13 21° 48° (NE) 20:17:09 435.675 MHz FM
STRAND 1 19 May 20:08:16 20:13:25 70° 103° (ESE) 20:18:33 ?
AO-7 19 May 20:13:07 20:15:00 11° 279° (W) 20:16:54 29.400 - 29.500 MHz

Developed and maintained by Chris Peat, Heavens-Above GmbH. Please read the updated FAQ before sending e-mail. Imprint. DLR
